User: anonymous   Login
Location: Chenango Forks
(42.2242°N, 75.8278°W)
Time: 01:19:19
(UTC-04:00)
Language:

Coronas F rocket - Orbit

View from above orbital plane
View from above orbital plane
View from above satellite
View from above satellite

Ground track
Ground track

The orbit data is extracted from the following two-line orbital elements,

1 26874U 01032B   15117.87340545  .00022402  00000-0  24164-3 0  9994
2 26874 082.4689 011.2390 0010911 342.0055 018.0815 15.63432877770264
Epoch (UTC): 27 April 2015 20:57:42
Eccentricity: 0.0010911
inclination: 82.4689°
perigee height: 370 km
apogee height: 385 km
right ascension of ascending node: 11.2390°
argument of perigee: 342.0055°
revolutions per day: 15.63432877
mean anomaly at epoch: 18.0815°
orbit number at epoch: 77026

The dashed part of the orbit path shows where the satellite is in the earth's shadow,  

DLR